Total_Precipitation_Accumulation
0.36 0.41 0.43 0.44 0.67 0.83 0.85 0.96 0.93 0.82 0.52 0.36 0.23 0.16 0.14 0.13 0.13 0.16 0.16 0.19 0.23 0.28 0.34 0.29 0.31 0.29 0.23 0.23 0.26 0.29 0.29 0.27 0.28 0.28 0.23 0.19 0.18 0.18 0.15 0.14 0.17 0.21 0.24
0.27 0.22 0.17 0.27 0.31 0.38 0.44 0.47 0.48 0.40 0.24 0.17 0.15 0.13 0.11 0.08 0.07 0.07 0.09 0.09 0.12 0.17 0.23 0.30 0.25 0.25 0.25 0.25 0.24 0.25 0.23 0.21 0.24 0.27 0.24 0.16 0.13 0.14 0.10 0.14 0.14 0.16 0.26
0.10 0.06 0.04 0.08 0.26 0.45 0.40 0.24 0.25 0.19 0.12 0.10 0.10 0.09 0.09 0.09 0.09 0.07 0.07 0.08 0.07 0.09 0.14 0.21 0.24 0.27 0.24 0.27 0.31 0.29 0.25 0.19 0.19 0.24 0.28 0.20 0.13 0.13 0.13 0.16 0.16 0.17 0.25
0.02 0.02 0.03 0.05 0.14 0.26 0.26 0.20 0.19 0.18 0.11 0.08 0.07 0.06 0.06 0.07 0.07 0.07 0.06 0.07 0.06 0.07 0.08 0.10 0.15 0.22 0.26 0.33 0.25 0.28 0.29 0.24 0.18 0.19 0.21 0.20 0.19 0.19 0.17 0.19 0.18 0.20 0.23
0.01 0.00 0.01 0.01 0.02 0.05 0.11 0.15 0.21 0.26 0.18 0.13 0.09 0.08 0.06 0.06 0.06 0.06 0.07 0.08 0.10 0.11 0.12 0.12 0.11 0.12 0.19 0.26 0.29 0.35 0.31 0.31 0.26 0.20 0.18 0.19 0.17 0.17 0.15 0.15 0.18 0.18 0.14
0.01 0.01 0.00 0.00 0.01 0.04 0.06 0.09 0.15 0.21 0.17 0.14 0.13 0.14 0.14 0.13 0.11 0.11 0.11 0.14 0.17 0.19 0.19 0.20 0.20 0.19 0.17 0.17 0.19 0.23 0.30 0.34 0.34 0.26 0.20 0.22 0.20 0.15 0.13 0.09 0.10 0.16 0.12
0.01 0.01 0.01 0.01 0.01 0.03 0.03 0.03 0.05 0.09 0.10 0.09 0.10 0.15 0.23 0.29 0.29 0.25 0.22 0.20 0.21 0.23 0.23 0.22 0.24 0.27 0.27 0.24 0.20 0.16 0.20 0.28 0.32 0.29 0.26 0.21 0.16 0.17 0.19 0.15 0.09 0.09 0.09
0.01 0.01 0.01 0.01 0.01 0.01 0.01 0.01 0.01 0.01 0.02 0.03 0.05 0.07 0.11 0.18 0.26 0.31 0.30 0.30 0.32 0.27 0.23 0.21 0.22 0.26 0.29 0.31 0.28 0.22 0.20 0.22 0.26 0.29 0.34 0.28 0.14 0.15 0.19 0.19 0.19 0.16 0.12
0.00 0.00 0.00 0.00 0.00 0.00 0.00 0.00 0.00 0.00 0.00 0.00 0.01 0.01 0.02 0.03 0.06 0.10 0.14 0.21 0.31 0.30 0.24 0.20 0.19 0.22 0.25 0.29 0.31 0.29 0.29 0.26 0.23 0.28 0.35 0.33 0.24 0.16 0.15 0.20 0.25 0.28 0.23
0.00 0.00 0.00 0.00 0.00 0.00 0.00 0.00 0.00 0.00 0.00 0.00 0.00 0.00 0.01 0.01 0.02 0.03 0.04 0.06 0.11 0.14 0.15 0.15 0.15 0.16 0.18 0.22 0.27 0.33 0.39 0.40 0.37 0.32 0.34 0.36 0.34 0.32 0.24 0.23 0.26 0.30 0.30
0.00 0.00 0.00 0.00 0.00 0.00 0.00 0.00 0.00 0.00 0.00 0.00 0.00 0.00 0.00 0.00 0.00 0.01 0.01 0.01 0.02 0.02 0.03 0.05 0.07 0.09 0.10 0.14 0.19 0.25 0.37 0.50 0.57 0.55 0.48 0.43 0.43 0.42 0.36 0.33 0.30 0.30 0.33
0.00 0.00 0.00 0.00 0.00 0.00 0.00 0.00 0.00 0.00 0.00 0.00 0.00 0.00 0.00 0.00 0.00 0.00 0.00 0.00 0.00 0.01 0.01 0.01 0.02 0.02 0.03 0.06 0.10 0.15 0.23 0.35 0.51 0.66 0.69 0.60 0.53 0.48 0.41 0.37 0.36 0.34 0.37
0.00 0.00 0.00 0.00 0.00 0.00 0.00 0.00 0.00 0.00 0.00 0.00 0.00 0.00 0.00 0.00 0.00 0.00 0.00 0.00 0.01 0.01 0.01 0.01 0.01 0.02 0.03 0.05 0.06 0.07 0.09 0.15 0.24 0.40 0.61 0.70 0.67 0.55 0.48 0.42 0.38 0.38 0.39
0.00 0.00 0.00 0.00 0.00 0.00 0.00 0.00 0.00 0.00 0.00 0.00 0.00 0.01 0.01 0.01 0.01 0.01 0.01 0.01 0.01 0.02 0.02 0.02 0.03 0.03 0.03 0.04 0.06 0.07 0.08 0.08 0.10 0.17 0.30 0.48 0.65 0.63 0.56 0.48 0.42 0.43 0.45
0.00 0.00 0.00 0.00 0.00 0.00 0.00 0.00 0.00 0.00 0.00 0.02 0.01 0.01 0.01 0.01 0.01 0.01 0.02 0.02 0.03 0.03 0.05 0.06 0.06 0.07 0.06 0.04 0.06 0.12 0.12 0.15 0.14 0.12 0.14 0.20 0.35 0.50 0.57 0.53 0.47 0.45 0.47
0.00 0.00 0.00 0.00 0.00 0.00 0.00 0.00 0.00 0.00 0.01 0.01 0.01 0.01 0.02 0.03 0.04 0.04 0.05 0.06 0.07 0.09 0.11 0.11 0.11 0.11 0.07 0.06 0.07 0.10 0.15 0.22 0.27 0.24 0.21 0.17 0.16 0.25 0.37 0.46 0.49 0.48 0.46
0.00 0.00 0.00 0.00 0.00 0.00 0.00 0.00 0.00 0.01 0.01 0.01 0.01 0.02 0.03 0.04 0.06 0.08 0.11 0.12 0.12 0.14 0.16 0.16 0.15 0.15 0.15 0.12 0.10 0.07 0.14 0.23 0.31 0.36 0.34 0.22 0.12 0.16 0.21 0.28 0.36 0.39 0.38
0.00 0.00 0.00 0.00 0.00 0.00 0.00 0.00 0.01 0.01 0.01 0.01 0.02 0.03 0.05 0.07 0.10 0.12 0.14 0.17 0.20 0.20 0.20 0.20 0.19 0.21 0.18 0.16 0.12 0.10 0.17 0.24 0.25 0.33 0.38 0.32 0.25 0.24 0.26 0.25 0.23 0.25 0.26
0.00 0.00 0.00 0.00 0.00 0.01 0.01 0.01 0.01 0.02 0.02 0.03 0.04 0.06 0.09 0.11 0.13 0.15 0.17 0.22 0.25 0.23 0.21 0.21 0.23 0.26 0.25 0.22 0.15 0.13 0.23 0.30 0.27 0.28 0.32 0.35 0.32 0.25 0.23 0.27 0.23 0.20 0.20
0.00 0.00 0.00 0.00 0.01 0.02 0.02 0.02 0.03 0.04 0.06 0.07 0.08 0.10 0.13 0.15 0.16 0.17 0.20 0.23 0.26 0.26 0.24 0.22 0.25 0.29 0.31 0.27 0.16 0.13 0.24 0.33 0.32 0.34 0.38 0.43 0.40 0.30 0.20 0.26 0.28 0.21 0.18
0.00 0.00 0.00 0.00 0.01 0.02 0.04 0.05 0.06 0.08 0.07 0.08 0.10 0.11 0.12 0.15 0.15 0.18 0.20 0.22 0.24 0.24 0.23 0.24 0.27 0.31 0.31 0.26 0.14 0.12 0.21 0.30 0.33 0.32 0.35 0.44 0.41 0.33 0.22 0.24 0.28 0.22 0.22
0.00 0.00 0.00 0.01 0.02 0.04 0.06 0.07 0.07 0.06 0.06 0.07 0.09 0.10 0.11 0.13 0.15 0.21 0.23 0.24 0.25 0.24 0.23 0.24 0.24 0.29 0.32 0.24 0.16 0.08 0.13 0.23 0.33 0.43 0.46 0.51 0.51 0.40 0.32 0.28 0.27 0.21 0.19
0.00 0.00 0.01 0.01 0.03 0.05 0.07 0.10 0.10 0.08 0.08 0.09 0.10 0.11 0.13 0.16 0.21 0.27 0.29 0.30 0.30 0.31 0.28 0.25 0.22 0.24 0.30 0.26 0.13 0.08 0.07 0.15 0.29 0.51 0.65 0.68 0.65 0.55 0.45 0.39 0.36 0.27 0.22
0.00 0.01 0.02 0.03 0.04 0.05 0.08 0.11 0.13 0.13 0.14 0.14 0.12 0.13 0.15 0.15 0.18 0.25 0.28 0.30 0.32 0.31 0.26 0.25 0.24 0.25 0.28 0.27 0.19 0.13 0.07 0.10 0.20 0.41 0.60 0.74 0.81 0.77 0.66 0.56 0.50 0.37 0.29
0.01 0.02 0.03 0.04 0.05 0.06 0.08 0.09 0.12 0.16 0.17 0.16 0.14 0.13 0.11 0.11 0.13 0.18 0.22 0.20 0.22 0.19 0.17 0.18 0.21 0.23 0.25 0.17 0.11 0.12 0.13 0.12 0.16 0.32 0.60 0.82 0.95 0.97 0.94 0.81 0.70 0.57 0.45
0.02 0.03 0.04 0.04 0.04 0.05 0.06 0.06 0.07 0.13 0.19 0.19 0.16 0.13 0.12 0.13 0.15 0.17 0.19 0.18 0.15 0.12 0.12 0.14 0.11 0.08 0.08 0.05 0.03 0.03 0.05 0.07 0.12 0.31 0.59 0.81 0.97 1.01 1.08 1.05 0.94 0.76 0.60